Wind_Speed
17 17 17 16 16 15 15 16 16 14 14 16 15 14 13 14 14 14 14 14 13 14 15 16 17 17 17 18 18 17 17 16 16 15 15 15 15 14 13 13 14 14 13 13
18 17 16 16 16 17 17 17 17 16 15 17 15 15 15 16 17 17 16 16 14 14 15 15 17 17 18 20 19 18 17 17 17 17 16 16 16 15 14 13 14 15 15 14
17 16 17 18 19 19 17 17 17 17 16 17 18 18 16 18 18 17 17 17 17 16 17 17 17 18 20 20 19 19 18 18 18 18 17 16 16 16 16 15 15 15 15 14
17 17 18 19 19 19 18 16 17 19 19 18 19 20 18 17 17 16 16 17 17 17 18 19 19 20 20 20 19 19 18 19 19 19 18 17 17 17 17 17 17 17 16 15
16 17 17 18 17 17 17 18 18 19 20 20 20 21 19 19 18 18 18 18 18 19 19 19 20 21 20 19 19 20 20 20 19 19 19 19 18 18 18 19 18 18 17 17
15 16 17 17 17 17 16 17 19 20 21 21 20 22 21 19 18 18 18 18 19 20 20 20 21 22 20 20 21 21 21 21 20 19 19 19 19 19 20 20 19 19 19 18
15 15 16 16 16 17 17 18 18 19 20 19 19 21 21 19 18 19 19 19 18 19 20 21 21 21 21 22 22 22 23 23 22 22 21 20 21 21 20 20 20 20 19 19
15 15 16 16 16 16 16 17 18 19 19 18 18 20 21 20 19 19 19 19 20 21 22 22 22 21 22 23 23 24 24 24 24 23 23 23 23 23 22 22 22 22 22 22
16 15 15 16 16 17 16 17 18 19 19 20 21 21 21 19 20 19 20 21 23 23 24 23 22 22 23 23 24 25 25 24 25 25 24 24 24 25 25 24 24 23 24 24
15 15 15 16 17 17 17 18 19 20 20 22 23 23 22 21 20 21 22 23 24 24 24 22 22 23 23 24 25 25 26 26 25 25 25 24 24 25 26 26 25 25 25 25
17 16 17 18 19 18 18 19 19 20 21 22 24 24 22 22 22 22 23 23 24 24 24 24 24 24 25 25 26 27 27 27 27 26 26 26 25 25 26 26 25 25 26 26
18 18 18 19 19 19 19 19 20 21 21 23 24 25 23 23 23 23 22 23 24 24 25 26 26 26 27 26 27 27 27 28 27 26 26 26 26 26 26 26 26 26 26 25
20 20 20 19 20 20 21 22 22 22 23 23 24 25 24 24 24 25 24 24 25 25 27 26 26 27 27 28 27 27 27 27 27 26 26 26 26 26 25 26 26 26 26 26
22 22 21 21 21 22 22 23 23 23 23 24 25 26 25 25 26 26 26 25 25 26 26 26 25 26 27 27 27 26 26 26 26 26 25 25 26 26 26 26 26 27 27 27
23 24 23 23 23 24 24 25 24 24 24 25 25 25 25 26 25 25 25 25 26 26 26 26 26 27 26 25 25 25 25 25 25 26 26 26 26 26 26 26 26 27 26 26
23 24 23 23 24 25 25 25 25 25 25 25 25 25 25 26 26 26 26 26 26 27 27 27 27 27 26 25 25 25 25 26 26 26 26 26 26 26 26 26 26 26 26 26
23 23 23 23 23 24 26 24 24 25 25 25 25 25 26 26 26 27 27 27 26 25 26 26 26 26 26 26 25 25 25 26 26 26 26 26 26 26 26 26 26 26 26 26
22 23 23 23 24 25 23 24 24 24 24 26 26 25 25 25 26 26 27 27 26 26 26 25 25 26 26 26 26 26 27 27 27 27 26 27 26 26 26 26 26 26 26 26
21 21 22 23 24 25 25 24 23 25 26 25 25 24 24 25 26 26 26 26 26 26 25 25 26 26 27 27 26 26 26 26 26 26 27 27 26 26 27 27 27 27 27 27
20 20 20 22 24 24 24 24 24 24 25 24 24 25 24 25 26 26 26 26 26 26 26 26 26 26 27 27 27 27 27 26 26 26 26 26 26 27 27 27 27 27 27 28
21 21 21 22 24 24 22 22 23 24 24 23 23 24 25 25 26 26 26 26 26 26 27 27 27 27 27 27 27 27 26 27 28 27 27 26 26 27 28 28 28 27 28 29
22 22 22 23 23 22 21 22 23 23 23 23 23 24 24 24 25 26 26 26 26 27 27 28 28 28 28 28 28 27 27 28 28 28 27 27 27 27 27 27 27 27 27 27
23 24 23 23 22 21 21 21 22 23 24 24 23 22 23 23 24 25 25 26 26 27 28 28 28 28 28 28 28 28 27 27 27 27 27 26 26 26 26 26 25 26 26 26
24 24 23 23 22 22 21 21 22 23 23 22 23 23 24 24 24 24 25 25 26 27 28 28 28 28 28 28 28 28 27 27 27 27 26 26 25 25 25 25 24 24 24 24
22 23 24 23 23 23 23 22 22 23 23 24 24 25 25 26 26 26 25 25 26 27 27 27 27 27 27 27 27 27 27 27 27 27 26 26 25 25 24 24 24 24 24 23
22 23 23 23 23 24 24 24 24 24 24 24 25 25 26 26 26 26 26 27 26 26 26 26 26 26 26 27 27 27 27 27 27 27 27 26 26 25 24 24 23 23 23 23
Wind_Direction
222 223 221 222 225 225 226 231 236 237 241 249 255 261 268 270 275 278 283 288 292 296 303 305 308 310 310 309 307 310 308 308 308 307 307 306 304 303 302 301 300 301 299 295
222 223 220 220 222 223 228 232 234 236 240 249 252 258 261 265 276 279 283 285 287 289 293 300 305 302 303 305 305 304 303 304 304 304 303 303 302 301 301 301 300 298 297 294
224 221 221 221 223 225 228 234 235 233 235 245 253 255 258 264 274 274 280 283 287 290 297 304 307 305 301 300 301 301 300 301 302 301 301 300 300 298 296 296 296 297 298 292
224 221 224 224 222 224 227 230 231 230 232 238 247 251 252 260 269 274 282 288 292 295 299 302 306 307 302 298 301 300 297 299 298 297 297 297 296 295 293 291 292 293 293 291
224 223 223 224 223 223 227 232 231 229 232 235 239 248 254 260 267 277 287 289 292 294 294 297 301 302 300 299 298 297 296 296 294 293 293 293 293 292 290 289 288 288 290 288
223 224 223 224 227 229 228 233 235 235 237 238 239 249 255 259 268 278 282 285 289 291 289 293 297 298 296 295 296 295 295 294 292 289 289 289 288 288 288 287 286 286 285 285
221 223 222 222 226 229 232 234 234 235 237 240 243 250 256 260 265 272 276 282 283 283 287 292 296 297 297 296 295 294 295 296 295 291 291 291 290 289 288 285 285 287 288 286
224 224 225 227 230 230 234 237 237 238 236 238 243 249 256 263 265 268 275 280 281 285 290 293 294 296 297 296 295 294 294 294 293 292 289 288 288 286 285 286 285 285 287 287
230 229 228 232 233 233 235 238 240 240 237 240 244 250 255 261 265 268 272 276 281 288 294 295 294 295 297 295 294 293 293 293 292 292 289 286 286 283 282 283 282 283 285 285
236 233 228 229 235 236 235 238 237 236 239 244 248 250 255 259 264 267 273 279 283 286 290 292 293 294 295 295 295 293 292 291 291 291 288 286 286 284 283 282 281 281 282 282
233 233 230 230 233 237 238 237 237 239 243 248 254 256 257 260 265 270 275 280 283 283 285 291 293 294 294 295 296 294 293 292 291 291 288 287 286 284 283 281 280 279 279 279
233 235 235 235 236 239 240 240 242 244 249 253 258 260 259 262 267 272 275 277 280 284 285 289 293 294 294 294 294 294 291 291 290 290 289 287 286 285 283 281 281 280 278 276
235 236 236 236 235 236 241 243 245 248 253 255 259 263 266 269 272 274 276 278 281 284 286 289 291 292 292 292 292 292 291 290 290 291 290 287 286 286 284 282 281 279 278 277
237 238 238 239 236 238 243 248 250 249 253 257 262 265 268 272 274 275 278 281 283 286 287 290 292 293 293 292 292 291 291 291 290 290 290 288 286 286 284 282 280 278 278 278
239 241 241 241 239 241 243 248 252 253 255 258 262 264 268 270 272 275 278 282 285 287 288 290 291 294 296 293 291 292 291 291 291 291 290 288 287 286 285 283 281 279 278 278
240 243 242 242 243 244 246 249 253 254 256 259 263 265 269 272 273 276 281 285 288 289 288 289 291 293 295 295 295 294 291 291 291 289 289 287 287 287 287 284 281 280 279 278
244 245 243 242 245 247 246 251 254 256 258 262 264 268 272 273 275 278 282 285 287 288 287 289 291 293 295 296 296 296 294 292 292 291 289 287 287 287 287 285 282 281 281 280
247 247 247 245 244 248 251 251 253 258 261 264 269 271 272 274 277 280 282 283 285 286 287 290 290 292 294 295 295 295 295 294 292 292 291 289 287 287 286 284 282 281 280 279
247 247 248 247 248 250 251 253 258 261 263 267 270 274 275 275 278 281 283 284 285 285 284 287 291 292 294 295 295 295 296 296 294 292 292 292 291 288 286 285 282 281 280 279
249 248 250 249 250 252 255 257 259 262 265 268 270 272 274 276 277 280 283 284 285 285 285 286 288 291 293 294 294 294 295 295 295 295 294 293 293 291 290 287 284 282 280 280
250 250 252 253 254 255 256 259 260 261 264 267 269 271 273 276 278 280 282 284 285 285 286 287 288 290 292 293 293 294 295 296 296 296 296 296 294 294 292 289 287 284 281 280
255 254 254 257 258 258 258 259 260 262 262 265 270 273 273 276 277 279 281 282 285 286 286 287 288 289 291 292 293 295 295 296 296 296 297 297 297 296 295 293 290 286 283 281
258 257 259 259 259 260 262 262 261 262 264 267 270 273 274 276 278 279 281 282 285 286 286 286 287 288 289 290 292 294 295 296 298 298 298 298 297 297 296 295 293 289 285 283
258 259 263 262 262 262 265 264 264 265 266 269 272 276 278 279 281 282 284 284 285 287 287 286 286 287 288 289 291 293 294 295 297 298 298 298 298 297 296 295 293 290 287 286
257 259 262 262 263 265 267 269 269 267 268 270 272 275 279 281 283 284 285 286 287 288 288 287 286 286 287 288 290 292 293 294 296 297 298 297 296 296 294 294 292 290 288 286
259 259 260 261 263 265 268 270 271 271 273 274 276 277 278 280 282 284 285 287 288 289 289 288 287 287 288 289 290 291 292 293 294 296 296 295 294 294 293 292 291 290 288 287
Height
5875 5878 5880 5883 5885 5887 5887 5888 5890 5893 5893 5893 5893 5894 5894 5894 5895 5895 5895 5895 5895 5895 5894 5892 5891 5890 5889 5887 5886 5884 5882 5881 5880 5878 5876 5875 5874 5872 5871 5870 5868 5867 5866 5864
5872 5874 5877 5878 5880 5881 5882 5884 5886 5888 5889 5889 5890 5890 5891 5891 5891 5892 5892 5892 5892 5891 5891 5890 5888 5887 5886 5884 5882 5880 5879 5877 5876 5874 5873 5871 5870 5869 5867 5866 5865 5863 5862 5861
5867 5871 5872 5873 5875 5876 5878 5880 5882 5884 5885 5885 5886 5887 5887 5887 5888 5888 5888 5888 5889 5888 5887 5886 5885 5883 5882 5880 5878 5876 5875 5873 5872 5870 5869 5868 5866 5865 5864 5862 5861 5859 5858 5857
5863 5865 5867 5868 5870 5872 5875 5877 5878 5879 5881 5882 5883 5883 5883 5883 5884 5884 5884 5885 5884 5884 5884 5883 5881 5879 5877 5875 5874 5872 5870 5869 5868 5866 5864 5863 5862 5861 5859 5858 5856 5855 5854 5853
5859 5861 5862 5864 5866 5868 5871 5872 5874 5876 5877 5878 5879 5879 5880 5880 5880 5880 5881 5881 5880 5880 5879 5878 5877 5875 5873 5872 5870 5868 5866 5864 5863 5861 5860 5858 5857 5856 5854 5853 5852 5851 5850 5849
5856 5857 5859 5861 5863 5864 5866 5868 5870 5871 5872 5874 5875 5875 5875 5876 5876 5876 5876 5876 5875 5875 5874 5874 5872 5870 5869 5867 5865 5863 5861 5858 5857 5855 5854 5852 5852 5851 5849 5848 5847 5846 5845 5844
5852 5854 5855 5857 5858 5860 5862 5864 5866 5867 5868 5869 5871 5870 5871 5872 5872 5872 5872 5871 5870 5869 5869 5869 5867 5866 5864 5861 5859 5857 5854 5852 5851 5850 5849 5847 5846 5845 5844 5843 5841 5840 5839 5839
5848 5851 5852 5853 5855 5856 5858 5860 5862 5863 5864 5865 5866 5865 5867 5867 5867 5867 5867 5867 5865 5865 5865 5864 5862 5860 5858 5856 5853 5851 5849 5847 5846 5845 5843 5842 5840 5839 5838 5837 5836 5835 5834 5833
5845 5847 5849 5850 5851 5853 5854 5855 5857 5859 5859 5860 5860 5861 5862 5862 5862 5863 5863 5862 5862 5861 5860 5858 5856 5855 5852 5850 5847 5845 5843 5842 5840 5838 5837 5835 5834 5833 5831 5830 5829 5828 5827 5826
5841 5844 5845 5847 5848 5849 5851 5852 5853 5853 5854 5854 5855 5855 5857 5858 5858 5858 5857 5857 5856 5856 5854 5852 5850 5849 5847 5845 5842 5840 5838 5836 5833 5832 5830 5829 5828 5826 5824 5823 5822 5821 5820 5819
5837 5840 5842 5843 5843 5844 5846 5847 5848 5849 5849 5850 5849 5852 5851 5852 5852 5852 5852 5851 5851 5849 5848 5846 5844 5843 5841 5839 5836 5834 5831 5829 5827 5825 5823 5821 5820 5819 5817 5816 5815 5814 5813 5812
5833 5836 5837 5838 5839 5840 5841 5842 5844 5845 5845 5845 5845 5848 5846 5846 5847 5847 5847 5846 5845 5844 5843 5841 5839 5837 5834 5832 5829 5827 5824 5822 5820 5817 5815 5814 5813 5811 5809 5808 5807 5806 5805 5805
5829 5831 5833 5834 5837 5836 5836 5837 5838 5840 5840 5840 5840 5843 5840 5841 5841 5841 5841 5840 5839 5838 5837 5835 5833 5831 5828 5826 5823 5820 5817 5815 5812 5810 5808 5806 5805 5802 5801 5801 5799 5798 5797 5797
5824 5826 5828 5830 5830 5831 5831 5833 5833 5834 5835 5835 5835 5836 5836 5836 5836 5835 5835 5834 5832 5832 5831 5829 5827 5824 5822 5819 5816 5813 5811 5808 5805 5803 5801 5799 5797 5795 5794 5793 5792 5791 5790 5789
5819 5821 5822 5824 5825 5825 5826 5827 5828 5829 5829 5830 5830 5830 5830 5830 5830 5829 5828 5828 5827 5825 5824 5822 5820 5817 5814 5811 5809 5806 5804 5801 5799 5797 5794 5792 5790 5788 5787 5785 5784 5783 5781 5780
5814 5815 5817 5818 5819 5820 5821 5821 5823 5824 5824 5824 5824 5824 5824 5824 5824 5823 5822 5821 5820 5819 5817 5815 5813 5810 5807 5805 5802 5799 5797 5794 5792 5790 5787 5785 5783 5781 5779 5777 5776 5775 5773 5772
5807 5809 5811 5812 5813 5814 5815 5816 5816 5817 5818 5818 5818 5819 5818 5818 5818 5817 5816 5815 5814 5812 5810 5808 5806 5803 5801 5798 5795 5793 5790 5787 5785 5782 5780 5778 5776 5774 5772 5770 5768 5767 5766 5764
5802 5803 5805 5806 5808 5808 5811 5811 5811 5811 5812 5812 5812 5812 5812 5812 5811 5810 5809 5808 5807 5805 5803 5801 5798 5796 5793 5791 5789 5786 5783 5780 5778 5775 5773 5771 5769 5766 5764 5762 5760 5759 5757 5756
5796 5797 5798 5800 5800 5802 5803 5804 5805 5805 5805 5806 5806 5806 5805 5805 5804 5803 5802 5801 5800 5798 5796 5794 5792 5789 5787 5784 5781 5779 5777 5774 5771 5768 5766 5763 5761 5759 5756 5754 5752 5751 5749 5748
5790 5791 5793 5793 5794 5795 5798 5798 5799 5800 5799 5800 5799 5799 5799 5798 5798 5797 5796 5794 5792 5791 5789 5787 5785 5783 5780 5777 5775 5772 5769 5767 5764 5761 5759 5756 5753 5751 5748 5746 5744 5742 5741 5739
5784 5785 5787 5787 5788 5789 5791 5792 5792 5794 5794 5793 5793 5792 5792 5792 5791 5790 5788 5787 5785 5784 5782 5780 5778 5775 5773 5770 5767 5765 5762 5759 5757 5754 5751 5748 5745 5743 5740 5737 5735 5733 5732 5731
5779 5780 5781 5781 5782 5785 5785 5785 5786 5786 5786 5786 5786 5785 5785 5784 5783 5782 5781 5779 5777 5776 5774 5772 5770 5768 5765 5763 5760 5758 5755 5752 5749 5746 5743 5741 5738 5735 5732 5729 5726 5725 5723 5722
5772 5774 5774 5775 5777 5777 5777 5778 5778 5778 5778 5778 5778 5778 5778 5777 5775 5774 5773 5771 5770 5768 5766 5764 5762 5760 5757 5755 5753 5750 5747 5744 5742 5739 5736 5733 5730 5727 5725 5722 5719 5717 5716 5714
5766 5767 5767 5768 5768 5770 5770 5771 5771 5771 5771 5771 5771 5771 5770 5769 5768 5767 5765 5764 5762 5760 5758 5756 5754 5752 5750 5747 5745 5742 5740 5737 5734 5731 5729 5726 5723 5721 5718 5715 5713 5711 5709 5707
5760 5761 5761 5761 5762 5762 5763 5763 5764 5764 5764 5764 5764 5763 5763 5762 5760 5759 5758 5756 5754 5752 5750 5748 5746 5744 5742 5740 5737 5735 5732 5729 5726 5724 5721 5719 5716 5714 5711 5709 5706 5704 5702 5701
5754 5754 5755 5755 5756 5756 5756 5756 5757 5757 5757 5757 5756 5756 5755 5754 5753 5751 5749 5748 5746 5744 5742 5740 5738 5736 5734 5732 5729 5727 5724 5721 5719 5716 5713 5711 5709 5706 5704 5702 5700 5697 5696 5694